Year,Month,Day,Hour,Minute,Value (Times are PST for windgust in km/hr)
2015,11,17,08,44,22.50
2015,11,17,08,45,11.30
2015,11,17,08,46,30.60
2015,11,17,08,47,25.70
2015,11,17,08,48,17.70
2015,11,17,08,49,25.70
2015,11,17,08,50,41.80
2015,11,17,08,51,20.90
2015,11,17,08,52,24.20
2015,11,17,08,53,27.40
2015,11,17,08,54,33.80
2015,11,17,08,55,25.70
2015,11,17,08,56,25.70
2015,11,17,08,57,29.00
2015,11,17,08,58,29.00
2015,11,17,08,59,19.30
2015,11,17,09,00,32.20
2015,11,17,09,01,25.70
2015,11,17,09,02,32.20
2015,11,17,09,03,25.70
2015,11,17,09,04,37.00
2015,11,17,09,05,30.60
2015,11,17,09,06,17.70
2015,11,17,09,07,17.70
2015,11,17,09,08,16.10
2015,11,17,09,09,19.30
2015,11,17,09,10,22.50
2015,11,17,09,11,41.80
2015,11,17,09,12,29.00
2015,11,17,09,13,30.60
2015,11,17,09,14,35.40
2015,11,17,09,15,30.60
2015,11,17,09,16,32.20
2015,11,17,09,17,35.40
2015,11,17,09,18,30.60
2015,11,17,09,19,38.60
2015,11,17,09,20,25.70
2015,11,17,09,21,48.30
2015,11,17,09,22,41.80
2015,11,17,09,23,35.40
2015,11,17,09,24,35.40
2015,11,17,09,25,30.60
2015,11,17,09,26,32.20
2015,11,17,09,27,33.80
2015,11,17,09,28,27.40
2015,11,17,09,29,29.00
2015,11,17,09,30,24.20
2015,11,17,09,31,38.60
2015,11,17,09,32,37.00
2015,11,17,09,33,27.40
2015,11,17,09,34,33.80
2015,11,17,09,35,38.60
2015,11,17,09,36,40.20
2015,11,17,09,37,30.60
2015,11,17,09,38,29.00
2015,11,17,09,39,30.60
2015,11,17,09,40,41.80
2015,11,17,09,41,45.10
2015,11,17,09,42,53.10
2015,11,17,09,43,25.70
2015,11,17,09,44,27.40
2015,11,17,09,45,37.00
2015,11,17,09,46,32.20
2015,11,17,09,47,30.60
2015,11,17,09,48,43.50
2015,11,17,09,49,41.80
2015,11,17,09,50,45.10
2015,11,17,09,51,45.10
2015,11,17,09,52,40.20
2015,11,17,09,53,30.60
2015,11,17,09,54,49.90
2015,11,17,09,55,46.70
2015,11,17,09,56,48.30
2015,11,17,09,57,45.10
2015,11,17,09,58,41.80
2015,11,17,09,59,41.80
2015,11,17,10,00,38.60
2015,11,17,10,01,53.10
2015,11,17,10,02,46.70
2015,11,17,10,03,35.40
2015,11,17,10,04,51.50
2015,11,17,10,05,48.30
2015,11,17,10,06,46.70
2015,11,17,10,07,41.80
2015,11,17,10,08,46.70
2015,11,17,10,09,67.60
2015,11,17,10,10,40.20
2015,11,17,10,11,27.40
2015,11,17,10,12,30.60
2015,11,17,10,13,41.80
2015,11,17,10,14,38.60
2015,11,17,10,15,32.20
2015,11,17,10,16,38.60
2015,11,17,10,17,35.40
2015,11,17,10,18,32.20
2015,11,17,10,19,27.40
2015,11,17,10,20,40.20
2015,11,17,10,21,43.50
2015,11,17,10,22,40.20
2015,11,17,10,23,37.00
2015,11,17,10,24,43.50
2015,11,17,10,25,32.20
2015,11,17,10,26,35.40
2015,11,17,10,27,33.80
2015,11,17,10,28,57.90
2015,11,17,10,29,53.10
2015,11,17,10,30,40.20
2015,11,17,10,31,33.80
2015,11,17,10,32,53.10
2015,11,17,10,33,37.00
2015,11,17,10,34,40.20
2015,11,17,10,35,30.60
2015,11,17,10,36,32.20
2015,11,17,10,37,32.20
2015,11,17,10,38,35.40
2015,11,17,10,39,40.20
2015,11,17,10,40,38.60
2015,11,17,10,41,41.80
2015,11,17,10,42,33.80
2015,11,17,10,43,49.90
2015,11,17,10,44,45.10
2015,11,17,10,45,40.20
2015,11,17,10,46,35.40
2015,11,17,10,47,35.40
2015,11,17,10,48,29.00
2015,11,17,10,49,30.60
2015,11,17,10,50,30.60
2015,11,17,10,51,53.10
2015,11,17,10,52,53.10
2015,11,17,10,53,35.40
2015,11,17,10,54,35.40
2015,11,17,10,55,53.10
2015,11,17,10,56,41.80
2015,11,17,10,57,41.80
2015,11,17,10,58,56.30
2015,11,17,10,59,49.90
2015,11,17,11,00,53.10
2015,11,17,11,01,40.20
2015,11,17,11,02,33.80
2015,11,17,11,03,35.40
2015,11,17,11,04,32.20
2015,11,17,11,05,30.60
2015,11,17,11,06,41.80
2015,11,17,11,07,35.40
2015,11,17,11,08,35.40
2015,11,17,11,09,62.70
2015,11,17,11,10,32.20
2015,11,17,11,11,38.60
2015,11,17,11,12,33.80
2015,11,17,11,13,43.50
2015,11,17,11,14,64.40
2015,11,17,11,15,38.60
2015,11,17,11,16,49.90
2015,11,17,11,17,40.20
2015,11,17,11,18,37.00
2015,11,17,11,19,25.70
2015,11,17,11,20,46.70
2015,11,17,11,21,43.50
2015,11,17,11,22,46.70
2015,11,17,11,23,54.70
2015,11,17,11,24,57.90
2015,11,17,11,25,40.20
2015,11,17,11,26,38.60
2015,11,17,11,27,40.20
2015,11,17,11,28,37.00
2015,11,17,11,29,37.00
2015,11,17,11,30,38.60
2015,11,17,11,31,46.70
2015,11,17,11,32,43.50
2015,11,17,11,33,33.80
2015,11,17,11,34,35.40
2015,11,17,11,35,30.60
2015,11,17,11,36,27.40
2015,11,17,11,37,32.20
2015,11,17,11,38,33.80
2015,11,17,11,39,22.50
2015,11,17,11,40,20.90
2015,11,17,11,41,29.00
2015,11,17,11,42,35.40
2015,11,17,11,43,41.80
2015,11,17,11,44,30.60
2015,11,17,11,45,25.70
2015,11,17,11,46,19.30
2015,11,17,11,47,11.30
2015,11,17,11,48,30.60
2015,11,17,11,49,38.60
2015,11,17,11,50,24.20
2015,11,17,11,51,29.00
2015,11,17,11,52,35.40
2015,11,17,11,53,30.60
2015,11,17,11,54,35.40
2015,11,17,11,55,37.00
2015,11,17,11,56,37.00
2015,11,17,11,57,64.40
2015,11,17,12,54,41.80
2015,11,17,12,55,45.10
2015,11,17,12,56,37.00
2015,11,17,12,57,29.00
2015,11,17,12,58,37.00
2015,11,17,12,59,38.60
2015,11,17,13,00,38.60
2015,11,17,13,01,40.20
2015,11,17,13,02,40.20
2015,11,17,13,03,37.00
2015,11,17,13,04,27.40
2015,11,17,13,05,37.00
2015,11,17,13,06,32.20
2015,11,17,13,07,25.70
2015,11,17,13,08,32.20
2015,11,17,13,09,27.40
2015,11,17,13,10,25.70
2015,11,17,13,11,27.40
2015,11,17,13,12,27.40
2015,11,17,13,13,38.60
2015,11,17,13,14,40.20
2015,11,17,13,15,40.20
2015,11,17,13,16,30.60
2015,11,17,13,17,30.60
2015,11,17,13,18,46.70
2015,11,17,13,19,51.50
2015,11,17,13,20,29.00
2015,11,17,13,21,45.10
2015,11,17,13,22,45.10
2015,11,17,13,23,41.80
2015,11,17,13,24,33.80
2015,11,17,13,25,33.80
2015,11,17,13,26,29.00
2015,11,17,13,27,33.80
2015,11,17,13,28,29.00
2015,11,17,13,29,56.30
2015,11,17,13,30,33.80
2015,11,17,13,31,53.10
2015,11,17,13,32,35.40
2015,11,17,13,33,38.60
2015,11,17,13,34,38.60
2015,11,17,13,35,37.00
2015,11,17,13,36,49.90
2015,11,17,13,37,35.40
2015,11,17,13,38,41.80
2015,11,17,13,39,41.80
2015,11,17,13,40,37.00
2015,11,17,13,41,27.40
2015,11,17,13,42,32.20
2015,11,17,13,43,49.90
2015,11,17,13,44,32.20
2015,11,17,13,45,41.80
2015,11,17,13,46,45.10
2015,11,17,13,47,38.60
2015,11,17,13,48,38.60
2015,11,17,13,49,43.50
2015,11,17,13,50,35.40
2015,11,17,13,51,43.50
2015,11,17,13,52,30.60
2015,11,17,13,53,43.50
2015,11,17,13,54,40.20
2015,11,17,13,55,35.40
2015,11,17,13,56,30.60
2015,11,17,13,57,40.20
2015,11,17,13,58,38.60
2015,11,17,13,59,46.70
2015,11,17,14,00,43.50
2015,11,17,14,01,43.50
2015,11,17,14,02,41.80
2015,11,17,14,03,35.40
2015,11,17,14,04,37.00
2015,11,17,14,05,35.40
2015,11,17,14,06,37.00
2015,11,17,14,07,38.60
2015,11,17,14,08,35.40
2015,11,17,14,09,25.70
2015,11,17,14,10,29.00
2015,11,17,14,11,30.60
2015,11,17,14,12,35.40
2015,11,17,14,13,37.00
2015,11,17,14,14,37.00
2015,11,17,14,15,33.80
2015,11,17,14,16,35.40
2015,11,17,14,17,29.00
2015,11,17,14,18,25.70
2015,11,17,14,19,30.60
2015,11,17,14,20,35.40
2015,11,17,14,21,30.60
2015,11,17,14,22,53.10
2015,11,17,14,23,46.70
2015,11,17,14,24,30.60
2015,11,17,14,25,30.60
2015,11,17,14,26,29.00
2015,11,17,14,27,17.70
2015,11,17,14,28,35.40
2015,11,17,14,29,27.40
2015,11,17,14,30,33.80
2015,11,17,14,31,30.60
2015,11,17,14,32,35.40
2015,11,17,14,33,41.80
2015,11,17,14,34,32.20
2015,11,17,14,35,27.40
2015,11,17,14,36,35.40
2015,11,17,14,37,22.50
2015,11,17,14,38,22.50
2015,11,17,14,39,45.10
2015,11,17,14,40,35.40
2015,11,17,14,41,17.70
2015,11,17,14,42,25.70
2015,11,17,14,43,37.00
2015,11,17,14,44,32.20
2015,11,17,14,45,25.70
2015,11,17,14,46,14.50
2015,11,17,14,47,19.30
2015,11,17,14,48,22.50
2015,11,17,14,49,33.80
2015,11,17,14,50,35.40
2015,11,17,14,51,22.50
2015,11,17,14,52,16.10
2015,11,17,14,53,19.30
2015,11,17,14,54,11.30
2015,11,17,14,55,29.00
2015,11,17,14,56,22.50
2015,11,17,14,57,11.30
2015,11,17,14,58,24.20
2015,11,17,14,59,16.10
2015,11,17,15,00,22.50
2015,11,17,15,01,30.60
2015,11,17,15,02,22.50
2015,11,17,15,03,24.20
2015,11,17,15,04,45.10
2015,11,17,15,05,27.40
2015,11,17,15,06,41.80
2015,11,17,15,07,37.00
2015,11,17,15,08,24.20
2015,11,17,15,09,9.60
2015,11,17,15,10,30.60
2015,11,17,15,11,32.20
2015,11,17,15,12,30.60
2015,11,17,15,13,29.00
2015,11,17,15,14,22.50
2015,11,17,15,15,27.40
2015,11,17,15,16,33.80
2015,11,17,15,17,24.20
2015,11,17,15,18,27.40
2015,11,17,15,19,27.40
2015,11,17,15,20,25.70
2015,11,17,15,21,14.50
2015,11,17,15,22,19.30
2015,11,17,15,23,24.20
2015,11,17,15,24,6.40
2015,11,17,15,25,9.60
2015,11,17,15,26,25.70
2015,11,17,15,27,25.70
2015,11,17,15,28,20.90
2015,11,17,15,29,17.70
2015,11,17,15,30,19.30
2015,11,17,15,31,20.90
2015,11,17,15,32,41.80
2015,11,17,15,33,40.20
2015,11,17,15,34,22.50
2015,11,17,15,35,30.60
2015,11,17,15,36,27.40
2015,11,17,15,37,35.40
2015,11,17,15,38,25.70
2015,11,17,15,39,11.30
2015,11,17,15,40,19.30
2015,11,17,15,41,9.60
2015,11,17,15,42,20.90
2015,11,17,15,43,20.90
2015,11,17,15,44,24.20
2015,11,17,15,45,14.50
2015,11,17,15,46,8.10
2015,11,17,15,47,9.60
2015,11,17,15,48,17.70
2015,11,17,15,49,24.20
2015,11,17,15,50,22.50
2015,11,17,15,51,19.30
2015,11,17,15,52,19.30
2015,11,17,15,53,20.90
2015,11,17,15,54,24.20
2015,11,17,15,55,16.10
2015,11,17,15,56,25.70
2015,11,17,15,57,24.20
2015,11,17,15,58,22.50
2015,11,17,15,59,17.70
2015,11,17,16,00,14.50
2015,11,17,16,01,20.90
2015,11,17,16,02,40.20
2015,11,17,16,03,24.20
2015,11,17,16,04,14.50
2015,11,17,16,05,27.40
2015,11,17,16,06,27.40
2015,11,17,16,07,20.90
2015,11,17,16,08,19.30
2015,11,17,16,09,19.30
2015,11,17,16,10,17.70
2015,11,17,16,11,25.70
2015,11,17,16,12,30.60
2015,11,17,16,13,22.50
2015,11,17,16,14,20.90
2015,11,17,16,15,24.20
2015,11,17,16,16,20.90
2015,11,17,16,17,22.50
2015,11,17,16,18,11.30
2015,11,17,16,19,25.70
2015,11,17,16,20,17.70
2015,11,17,16,21,19.30
2015,11,17,16,22,19.30
2015,11,17,16,23,6.40
2015,11,17,16,24,14.50
2015,11,17,16,25,14.50
2015,11,17,16,26,20.90
2015,11,17,16,27,12.90
2015,11,17,16,28,11.30
2015,11,17,16,29,16.10
2015,11,17,16,30,16.10
2015,11,17,16,31,14.50
2015,11,17,16,32,20.90
2015,11,17,16,33,19.30
2015,11,17,16,34,24.20
2015,11,17,16,35,24.20
2015,11,17,16,36,19.30
2015,11,17,16,37,27.40
2015,11,17,16,38,22.50
2015,11,17,16,39,19.30
2015,11,17,16,40,22.50
2015,11,17,16,41,16.10
2015,11,17,16,42,17.70
2015,11,17,16,43,19.30
2015,11,17,16,44,19.30
2015,11,17,16,45,20.90
2015,11,17,16,46,22.50
2015,11,17,16,47,25.70
2015,11,17,16,48,20.90
2015,11,17,16,49,19.30
2015,11,17,16,50,19.30
2015,11,17,16,51,17.70
2015,11,17,16,52,20.90
2015,11,17,16,53,17.70
2015,11,17,16,54,11.30
2015,11,17,16,55,16.10
2015,11,17,16,56,16.10
2015,11,17,16,57,17.70
2015,11,17,16,58,20.90
2015,11,17,16,59,19.30
2015,11,17,17,00,16.10
2015,11,17,17,01,14.50
2015,11,17,17,02,16.10
2015,11,17,17,03,25.70
2015,11,17,17,04,19.30
2015,11,17,17,05,27.40
2015,11,17,17,06,24.20
2015,11,17,17,07,22.50
2015,11,17,17,08,16.10
2015,11,17,17,09,20.90
2015,11,17,17,10,25.70
2015,11,17,17,11,27.40
2015,11,17,17,12,25.70
2015,11,17,17,13,17.70
2015,11,17,17,14,19.30
2015,11,17,17,15,6.40
2015,11,17,17,16,22.50
2015,11,17,17,17,16.10
2015,11,17,17,18,17.70
2015,11,17,17,19,19.30
2015,11,17,17,20,8.10
2015,11,17,17,21,9.60
2015,11,17,17,22,14.50
2015,11,17,17,23,20.90
2015,11,17,17,24,9.60
2015,11,17,17,25,9.60
2015,11,17,17,26,8.10
2015,11,17,17,27,17.70
2015,11,17,17,28,27.40
2015,11,17,17,29,22.50
2015,11,17,17,30,25.70
2015,11,17,17,31,24.20
2015,11,17,17,32,19.30
2015,11,17,17,33,25.70
2015,11,17,17,34,29.00
2015,11,17,17,35,25.70
2015,11,17,17,36,19.30
2015,11,17,17,37,27.40
2015,11,17,17,38,24.20
2015,11,17,17,39,25.70
2015,11,17,17,40,19.30
2015,11,17,17,41,29.00
2015,11,17,17,42,19.30
2015,11,17,17,43,22.50
2015,11,17,17,44,25.70
2015,11,17,17,45,29.00
2015,11,17,17,46,27.40
2015,11,17,17,47,16.10
2015,11,17,17,48,16.10
2015,11,17,17,49,22.50
2015,11,17,17,50,11.30
2015,11,17,17,51,17.70
2015,11,17,17,52,17.70
2015,11,17,17,53,17.70
2015,11,17,17,54,14.50
2015,11,17,17,55,16.10
2015,11,17,17,56,17.70
2015,11,17,17,57,22.50
2015,11,17,17,58,24.20
2015,11,17,17,59,9.60
2015,11,17,18,00,16.10
2015,11,17,18,01,8.10
2015,11,17,18,02,14.50
2015,11,17,18,03,14.50
2015,11,17,18,04,17.70
2015,11,17,18,05,19.30
2015,11,17,18,06,24.20
2015,11,17,18,07,16.10
2015,11,17,18,08,11.30
2015,11,17,18,09,8.10
2015,11,17,18,10,9.60
2015,11,17,18,11,12.90
2015,11,17,18,12,11.30
2015,11,17,18,13,9.60
2015,11,17,18,14,17.70
2015,11,17,18,15,19.30
2015,11,17,18,16,11.30
2015,11,17,18,17,11.30
2015,11,17,18,18,11.30
2015,11,17,18,19,27.40
2015,11,17,18,20,20.90
2015,11,17,18,21,29.00
2015,11,17,18,22,16.10
2015,11,17,18,23,14.50
2015,11,17,18,24,19.30
2015,11,17,18,25,16.10
2015,11,17,18,26,16.10
2015,11,17,18,27,14.50
2015,11,17,18,28,14.50
2015,11,17,18,29,20.90
2015,11,17,18,30,20.90
2015,11,17,18,31,27.40
2015,11,17,18,32,27.40
2015,11,17,18,33,16.10
2015,11,17,18,34,22.50
2015,11,17,18,35,12.90
2015,11,17,18,36,14.50
2015,11,17,18,37,11.30
2015,11,17,18,38,20.90
2015,11,17,18,39,17.70
2015,11,17,18,40,24.20
2015,11,17,18,41,17.70
2015,11,17,18,42,19.30
2015,11,17,18,43,25.70
2015,11,17,18,44,14.50
2015,11,17,18,45,11.30
2015,11,17,18,46,14.50
2015,11,17,18,47,11.30
2015,11,17,18,48,14.50
2015,11,17,18,49,11.30
2015,11,17,18,50,19.30
2015,11,17,18,51,11.30
2015,11,17,18,52,17.70
2015,11,17,18,53,17.70
2015,11,17,18,54,20.90
2015,11,17,18,55,30.60
2015,11,17,18,56,22.50
2015,11,17,18,57,20.90
2015,11,17,18,58,20.90
2015,11,17,18,59,22.50
2015,11,17,19,00,9.60
2015,11,17,19,01,17.70
2015,11,17,19,02,19.30
2015,11,17,19,03,22.50
2015,11,17,19,04,17.70
2015,11,17,19,05,8.10
2015,11,17,19,06,11.30
2015,11,17,19,07,24.20
2015,11,17,19,08,8.10
2015,11,17,19,09,11.30
2015,11,17,19,10,29.00
2015,11,17,19,11,22.50
2015,11,17,19,12,24.20
2015,11,17,19,13,8.10
2015,11,17,19,14,16.10
2015,11,17,19,15,20.90
2015,11,17,19,16,16.10
2015,11,17,19,17,25.70
2015,11,17,19,18,17.70
2015,11,17,19,19,14.50
2015,11,17,19,20,17.70
2015,11,17,19,21,29.00
2015,11,17,19,22,29.00
2015,11,17,19,23,24.20
2015,11,17,19,24,35.40
2015,11,17,19,25,30.60
2015,11,17,19,26,22.50
2015,11,17,19,27,11.30
2015,11,17,19,28,17.70
2015,11,17,19,29,16.10
2015,11,17,19,30,14.50
2015,11,17,19,31,11.30
2015,11,17,19,32,8.10
2015,11,17,19,33,11.30
2015,11,17,19,34,29.00
2015,11,17,19,35,14.50
2015,11,17,19,36,22.50
2015,11,17,19,37,19.30
2015,11,17,19,38,11.30
2015,11,17,19,39,11.30
2015,11,17,19,40,17.70
2015,11,17,19,41,14.50
2015,11,17,19,42,9.60
2015,11,17,19,43,9.60
2015,11,17,19,44,14.50
2015,11,17,19,45,14.50
2015,11,17,19,46,16.10
2015,11,17,19,47,17.70
2015,11,17,19,48,27.40
2015,11,17,19,49,25.70
2015,11,17,19,50,27.40
2015,11,17,19,51,24.20
2015,11,17,19,52,20.90
2015,11,17,19,53,14.50
2015,11,17,19,54,25.70
2015,11,17,19,55,29.00
2015,11,17,19,56,25.70
2015,11,17,19,57,29.00
2015,11,17,19,58,11.30
2015,11,17,19,59,25.70
2015,11,17,20,00,14.50
2015,11,17,20,01,14.50
2015,11,17,20,02,22.50
2015,11,17,20,03,14.50
2015,11,17,20,04,20.90
2015,11,17,20,05,8.10
2015,11,17,20,06,11.30
2015,11,17,20,07,12.90
2015,11,17,20,08,20.90
2015,11,17,20,09,11.30
2015,11,17,20,10,8.10
2015,11,17,20,11,9.60
2015,11,17,20,12,6.40
2015,11,17,20,13,9.60
2015,11,17,20,14,12.90
2015,11,17,20,15,14.50
2015,11,17,20,16,14.50
2015,11,17,20,17,11.30
2015,11,17,20,18,4.80
2015,11,17,20,19,3.20
2015,11,17,20,20,6.40
2015,11,17,20,21,11.30
2015,11,17,20,22,16.10
2015,11,17,20,23,8.10
2015,11,17,20,24,11.30
2015,11,17,20,25,25.70
2015,11,17,20,26,9.60
2015,11,17,20,27,17.70
2015,11,17,20,28,11.30
2015,11,17,20,29,20.90
2015,11,17,20,30,9.60
2015,11,17,20,31,14.50
2015,11,17,20,32,17.70
2015,11,17,20,33,9.60
2015,11,17,20,34,4.80
2015,11,17,20,35,11.30
2015,11,17,20,36,9.60
2015,11,17,20,37,8.10
2015,11,17,20,38,9.60
2015,11,17,20,39,8.10
2015,11,17,20,40,14.50
2015,11,17,20,41,11.30
2015,11,17,20,42,14.50
2015,11,17,20,43,9.60
2015,11,17,20,44,14.50
2015,11,17,20,45,6.40
2015,11,17,20,46,8.10
2015,11,17,20,47,4.80
2015,11,17,20,48,4.80
2015,11,17,20,49,1.60
2015,11,17,20,50,1.60
2015,11,17,20,53,3.20
2015,11,17,20,54,3.20
2015,11,17,20,55,3.20
2015,11,17,20,56,4.80
2015,11,17,20,57,4.80
2015,11,17,20,58,3.20
2015,11,17,20,59,3.20
2015,11,17,21,00,9.60
2015,11,17,21,01,9.60
2015,11,17,21,02,8.10
2015,11,17,21,03,4.80
2015,11,17,21,04,4.80
2015,11,17,21,05,6.40
2015,11,17,21,06,6.40
2015,11,17,21,07,4.80
2015,11,17,21,08,6.40
2015,11,17,21,09,1.60
2015,11,17,21,10,11.30
2015,11,17,21,11,8.10
2015,11,17,21,12,8.10
2015,11,17,21,13,8.10
2015,11,17,21,14,6.40
2015,11,17,21,15,6.40
2015,11,17,21,16,4.80
2015,11,17,21,17,8.10
2015,11,17,21,18,6.40
2015,11,17,21,23,4.80
2015,11,17,21,24,4.80
2015,11,17,21,26,3.20
2015,11,17,21,27,3.20
2015,11,17,21,30,8.10
2015,11,17,21,31,6.40
2015,11,17,21,32,4.80
2015,11,17,21,37,1.60
2015,11,17,21,39,4.80
2015,11,17,21,46,1.60
2015,11,17,21,47,1.60
2015,11,17,21,49,4.80
2015,11,17,21,50,8.10
2015,11,17,21,51,6.40
2015,11,17,21,52,6.40
2015,11,17,21,53,6.40
2015,11,17,21,54,4.80
2015,11,17,21,55,1.60
2015,11,17,22,00,4.80
2015,11,17,22,01,4.80
2015,11,17,22,02,4.80
2015,11,17,22,03,6.40
2015,11,17,22,04,3.20
2015,11,17,22,14,1.60
2015,11,17,22,22,4.80
2015,11,17,22,23,8.10
2015,11,17,22,24,8.10
2015,11,17,22,25,8.10
2015,11,17,22,26,8.10
2015,11,17,22,27,6.40
2015,11,17,22,28,8.10
2015,11,17,22,29,9.60
2015,11,17,22,30,9.60
2015,11,17,22,31,9.60
2015,11,17,22,32,8.10
2015,11,17,22,33,12.90
2015,11,17,22,34,9.60
2015,11,17,22,35,8.10
2015,11,17,22,36,9.60
2015,11,17,22,37,4.80
2015,11,17,22,38,6.40
2015,11,17,22,39,4.80
2015,11,17,22,40,4.80
2015,11,17,22,41,4.80
2015,11,17,22,42,6.40
2015,11,17,22,43,8.10
2015,11,17,22,44,4.80
2015,11,17,22,45,4.80
2015,11,17,22,46,6.40
2015,11,17,22,47,6.40
2015,11,17,22,48,6.40
2015,11,17,22,49,6.40
2015,11,17,22,50,6.40
2015,11,17,22,51,6.40
2015,11,17,22,52,9.60
2015,11,17,22,53,9.60
2015,11,17,22,54,8.10
2015,11,17,22,55,6.40
2015,11,17,22,56,8.10
2015,11,17,22,57,9.60
2015,11,17,22,58,9.60
2015,11,17,22,59,8.10
2015,11,17,23,00,9.60
2015,11,17,23,01,17.70
2015,11,17,23,02,8.10
2015,11,17,23,03,6.40
2015,11,17,23,04,8.10
2015,11,17,23,05,14.50
2015,11,17,23,06,14.50
2015,11,17,23,07,8.10
2015,11,17,23,08,8.10
2015,11,17,23,09,8.10
2015,11,17,23,10,6.40
2015,11,17,23,11,8.10
2015,11,17,23,12,11.30
2015,11,17,23,13,8.10
2015,11,17,23,14,9.60
2015,11,17,23,15,11.30
2015,11,17,23,16,14.50
2015,11,17,23,17,16.10
2015,11,17,23,18,8.10
2015,11,17,23,19,8.10
2015,11,17,23,20,9.60
2015,11,17,23,21,9.60
2015,11,17,23,22,6.40
2015,11,17,23,23,6.40
2015,11,17,23,24,12.90
2015,11,17,23,25,8.10
2015,11,17,23,26,8.10
2015,11,17,23,27,8.10
2015,11,17,23,28,6.40
2015,11,17,23,29,6.40
2015,11,17,23,30,6.40
2015,11,17,23,31,4.80
2015,11,17,23,32,8.10
2015,11,17,23,33,6.40
2015,11,17,23,34,8.10
2015,11,17,23,35,8.10
2015,11,17,23,36,6.40
2015,11,17,23,37,4.80
2015,11,17,23,38,8.10
2015,11,17,23,39,8.10
2015,11,17,23,40,6.40
2015,11,17,23,41,9.60
2015,11,17,23,42,4.80
2015,11,17,23,43,4.80
2015,11,17,23,44,3.20
2015,11,17,23,45,4.80
2015,11,17,23,46,9.60
2015,11,17,23,47,8.10
2015,11,17,23,48,4.80
2015,11,17,23,49,4.80
2015,11,17,23,50,4.80
2015,11,17,23,51,4.80
2015,11,17,23,52,4.80
2015,11,17,23,53,4.80
2015,11,17,23,55,6.40
2015,11,17,23,56,4.80
2015,11,17,23,57,1.60
